| time (UTC) | temp F | wind direction | speed MPH | gust MPH | rain 1hr in | rain 24hr in | rain mn in | humidity % | barometer mb |
| 20260503193203 | 68 | 150 | 13.0 | 0.0 | 0.00 | 0.00 | 0.00 | 34 | 1012.0 |
| 20260503191801 | 68 | 140 | 9.0 | 0.0 | 0.00 | 0.00 | 0.00 | 32 | |
| 20260503190203 | 68 | 140 | 10.0 | 0.0 | 0.00 | 0.00 | 0.00 | 34 | 1012.0 |
| 20260503183203 | 70 | 150 | 12.0 | 0.0 | 0.00 | 0.00 | 0.00 | 30 | 1012.0 |
| 20260503181805 | 72 | 140 | 9.0 | 0.0 | 0.00 | 0.00 | 0.00 | 26 | |
| 20260503180204 | 72 | 150 | 12.0 | 0.0 | 0.00 | 0.00 | 0.00 | 26 | 1012.0 |
| 20260503173203 | 72 | 140 | 12.0 | 0.0 | 0.00 | 0.00 | 0.00 | 26 | 1012.0 |
| 20260503171802 | 75 | 130 | 9.0 | 0.0 | 0.00 | 0.00 | 0.00 | 22 | |
| 20260503170203 | 75 | 130 | 12.0 | 0.0 | 0.00 | 0.00 | 0.00 | 23 | 1012.0 |
| 20260503150203 | 79 | 0 | 8.0 | 0.0 | 0.00 | 0.00 | 0.00 | 19 | 1012.0 |
| 20260503140202 | 77 | 120 | 9.0 | 0.0 | 0.00 | 0.00 | 0.00 | 22 | 1013.0 |
| 20260503130203 | 79 | 0 | 6.0 | 0.0 | 0.00 | 0.00 | 0.00 | 21 | 1014.0 |
| 20260503120202 | 75 | 130 | 8.0 | 0.0 | 0.00 | 0.00 | 0.00 | 25 | 1015.0 |
| 20260503110202 | 75 | 150 | 8.0 | 0.0 | 0.00 | 0.00 | 0.00 | 23 | 1015.0 |
| 20260503100202 | 72 | 140 | 8.0 | 0.0 | 0.00 | 0.00 | 0.00 | 26 | 1016.0 |
| 20260503090202 | 70 | 150 | 8.0 | 0.0 | 0.00 | 0.00 | 0.00 | 32 | 1017.0 |
| 20260503080203 | 66 | 160 | 8.0 | 0.0 | 0.00 | 0.00 | 0.00 | 34 | 1017.0 |
| 20260503071800 | 64 | 150 | 5.0 | 0.0 | 0.00 | 0.00 | 0.00 | 42 | |
| 20260503070203 | 64 | 150 | 7.0 | 0.0 | 0.00 | 0.00 | 0.00 | 42 | 1017.0 |
| 20260503060203 | 57 | 140 | 7.0 | 0.0 | 0.00 | 0.00 | 0.00 | 50 | 1017.0 |
| 20260503053202 | 55 | 130 | 9.0 | 0.0 | 0.00 | 0.00 | 0.00 | 54 | 1017.0 |
| 20260503051801 | 52 | 110 | 7.0 | 0.0 | 0.00 | 0.00 | 0.00 | 62 | |
| 20260503050203 | 52 | 110 | 6.0 | 0.0 | 0.00 | 0.00 | 0.00 | 66 | 1017.0 |
| 20260503043202 | 50 | 0 | 2.0 | 0.0 | 0.00 | 0.00 | 0.00 | 61 | 1017.0 |
| 20260503041802 | 50 | 50 | 2.0 | 0.0 | 0.00 | 0.00 | 0.00 | 53 | |
| 20260503040203 | 50 | 0 | 1.0 | 0.0 | 0.00 | 0.00 | 0.00 | 53 | 1017.0 |
| 20260503033203 | 50 | 0 | 2.0 | 0.0 | 0.00 | 0.00 | 0.00 | 53 | 1017.0 |
| 20260503031800 | 48 | 340 | 5.0 | 0.0 | 0.00 | 0.00 | 0.00 | 57 | |
| 20260503030203 | 48 | 350 | 6.0 | 0.0 | 0.00 | 0.00 | 0.00 | 57 | 1017.0 |
| 20260503023203 | 54 | 170 | 5.0 | 0.0 | 0.00 | 0.00 | 0.00 | 46 | 1017.0 |
| 20260503021800 | 54 | 170 | 7.0 | 0.0 | 0.00 | 0.00 | 0.00 | 43 | |
| 20260503020202 | 54 | 180 | 6.0 | 0.0 | 0.00 | 0.00 | 0.00 | 46 | 1017.0 |
| 20260503013202 | 54 | 180 | 7.0 | 0.0 | 0.00 | 0.00 | 0.00 | 46 | 1017.0 |
| 20260503011801 | 54 | 180 | 7.0 | 0.0 | 0.00 | 0.00 | 0.00 | 46 | |
| 20260503010201 | 54 | 190 | 9.0 | 0.0 | 0.00 | 0.00 | 0.00 | 46 | 1017.0 |
| 20260503003203 | 54 | 180 | 9.0 | 0.0 | 0.00 | 0.00 | 0.00 | 46 | 1017.0 |
| 20260503001800 | 54 | 180 | 7.0 | 0.0 | 0.00 | 0.00 | 0.00 | 46 | |
| 20260503000204 | 55 | 170 | 8.0 | 0.0 | 0.00 | 0.00 | 0.00 | 43 | 1017.0 |
| 20260502233203 | 55 | 170 | 8.0 | 0.0 | 0.00 | 0.00 | 0.00 | 43 | 1018.0 |
| 20260502231801 | 57 | 180 | 7.0 | 0.0 | 0.00 | 0.00 | 0.00 | 41 | |
| 20260502230202 | 57 | 180 | 9.0 | 0.0 | 0.00 | 0.00 | 0.00 | 44 | 1018.0 |
| 20260502223202 | 55 | 170 | 8.0 | 0.0 | 0.00 | 0.00 | 0.00 | 47 | 1018.0 |
| 20260502221802 | 54 | 150 | 7.0 | 0.0 | 0.00 | 0.00 | 0.00 | 46 | |
| 20260502220202 | 57 | 150 | 9.0 | 0.0 | 0.00 | 0.00 | 0.00 | 41 | 1018.0 |
| 20260502213202 | 59 | 130 | 7.0 | 0.0 | 0.00 | 0.00 | 0.00 | 38 | 1018.0 |
| 20260502211800 | 61 | 120 | 9.0 | 0.0 | 0.00 | 0.00 | 0.00 | 36 | |
| 20260502210203 | 61 | 130 | 8.0 | 0.0 | 0.00 | 0.00 | 0.00 | 36 | 1018.0 |
| 20260502203203 | 61 | 120 | 8.0 | 0.0 | 0.00 | 0.00 | 0.00 | 38 | 1018.0 |
| 20260502201801 | 63 | 110 | 9.0 | 0.0 | 0.00 | 0.00 | 0.00 | 33 | |
| 20260502200202 | 61 | 110 | 8.0 | 0.0 | 0.00 | 0.00 | 0.00 | 38 | 1018.0 |